Regional Weather Roundup
Issued by NWS New Orleans/Baton Rouge, LA

Home | Current Version | Previous Version | Text Only | Print | Product List | Glossary On
Versions: 1 2 3 4 5 6 7 8 9 10 11 12 13 14 15 16 17 18 19 20 21 22 23 24 25 26 27 28 29 30 31 32 33 34 35 36 37 38 39 40 41 42 43 44 45 46 47 48 49 50
000
ASUS44 KLIX 241610
RWRLIX
NEW ORLEANS REGIONAL WEATHER ROUNDUP
NATIONAL WEATHER SERVICE NEW ORLEANS LA
1100 AM CDT THU JUL 24 2014

NOTE: "FAIR" INDICATES FEW OR NO CLOUDS BELOW 12,000 FEET WITH NO
      SIGNIFICANT WEATHER AND/OR OBSTRUCTIONS TO VISIBILITY.
      SKY/WX - SKY CONDITION AND SIGNIFICANT WEATHER.
      TMP - AIR TEMPERATURE.     DP    - DEWPOINT TEMPERATURE.
      RH  - RELATIVE HUMIDITY.   PRES  - PRESSURE.
      HI  - HEAT INDEX.          WCI   - WIND CHILL INDEX.

*  THESE STATIONS ARE NOT NWS OR FAA STATIONS AND ARE NOT UNDER
   NWS QUALITY CONTROL.

LAZ038-040-048-061>063-065>067-069-241700-
SOUTHEAST LOUISIANA

CITY           SKY/WX    TMP DP  RH WIND       PRES   REMARKS
N.O. AUDUBON     N/A     87  75  67 MISG        N/A  HX  96
N.O. INTL ARPT PTSUNNY   86  73  65 CALM      30.01S
N.O. LAKEFRONT MOSUNNY   84  75  74 N3        30.02S
N.O. DOWNTOWN*   N/A     84  72  65 CALM      30.02S
SLIDELL        MOSUNNY   86  73  65 CALM      30.01F
BATON ROUGE    MOSUNNY   86  72  62 NW3       30.01F
BOOTHVILLE       N/A     83  75  77 W9        30.03S
BELLE CHASSE   PTSUNNY   86  72  62 E5        30.01F
BOGALUSA*        N/A     86  72  62 CALM      30.04S
GALLIANO*      NOT AVBL
NEW ROADS*       N/A     81  75  82 CALM      30.02S
GONZALES*        N/A     83  74  74 CALM      30.01F
HAMMOND*       MOSUNNY   86  70  58 E3        30.03F
HOUMA*         MOSUNNY   86  70  58 CALM      30.00F
PORT FOURCHON* SUNNY     82  75  78 S8        30.03S

$$

MSZ070-080>082-241700-
SOUTHERN MISSISSIPPI

CITY           SKY/WX    TMP DP  RH WIND       PRES   REMARKS
MCCOMB         SUNNY     85  71  63 CALM      30.03S
GULFPORT       MOSUNNY   85  72  65 VRB5      30.02F
BILOXI         MOSUNNY   83  73  72 VRB6      30.03S
PASCAGOULA     PTSUNNY   85  73  67 VRB7      30.02F
STENNIS ARPT*  TSTM     N/A N/A N/A CALM      30.03S

$$

COASTAL OBSERVATIONS
LAKE AND NEARSHORE STATIONS

STATION/POSITION TIME  TEMP    WIND        PRES    WAVE
                       AIR SEA DIR/SP/G            HT/PER
                 (UTC) (F)     (DEG/KT/KT) (MB)    (FT/S)
WAVELAND YACHT   1600   80     180/  7/  9 1016.2
GRAND ISLE       1600   79 83  320/  4/  5 1017.4
SOUTHWEST PASS   1600   84 84  250/ 13/ 14 1017.2
NEW CANAL        1600   81 82   10/  4/  5 1016.7
SHELL BEACH      1600   79 80  160/  6/  8 1016.2

OFFSHORE STATIONS

STATION/POSITION TIME  TEMP    WIND        PRES    WAVE
                       AIR SEA DIR/SP/G            HT/PER
                 (UTC) (F)     (DEG/KT/KT) (MB)    (FT/S)
64 S DAUPHIN ISL 1524   82 85  250/  4/  6 1017.5

$$



USA.gov is the U.S. government's official web portal to all federal, state and local government web resources and services.